| time (UTC) | temp F | wind direction | speed knots | gust knots | rain 1hr in | rain 24hr in | rain mn in | humidity % | barometer mb |
| 20260507005620 | 49 | 199 | 0.0 | 1.7 | 0.00 | 0.00 | 0.00 | 54 | 1011.5 |
| 20260507004618 | 49 | 199 | 0.0 | 1.7 | 0.00 | 0.00 | 0.00 | 54 | 1011.5 |
| 20260507003616 | 49 | 199 | 0.0 | 1.7 | 0.00 | 0.00 | 0.00 | 52 | 1011.5 |
| 20260507002618 | 49 | 199 | 0.0 | 3.5 | 0.00 | 0.00 | 0.00 | 52 | 1011.4 |
| 20260507001615 | 50 | 208 | 0.0 | 1.7 | 0.00 | 0.00 | 0.00 | 52 | 1011.4 |
| 20260507000618 | 50 | 208 | 0.0 | 1.7 | 0.00 | 0.00 | 0.00 | 52 | 1011.4 |
| 20260506235619 | 50 | 175 | 0.0 | 3.5 | 0.00 | 0.00 | 0.00 | 52 | 1011.3 |
| 20260506234615 | 50 | 216 | 0.0 | 3.5 | 0.00 | 0.00 | 0.00 | 52 | 1011.3 |
| 20260506233616 | 50 | 350 | 0.0 | 3.5 | 0.00 | 0.00 | 0.00 | 51 | 1011.2 |
| 20260506232616 | 50 | 194 | 1.7 | 4.3 | 0.00 | 0.00 | 0.00 | 50 | 1011.2 |
| 20260506231619 | 50 | 186 | 0.0 | 4.3 | 0.00 | 0.00 | 0.00 | 50 | 1011.2 |
| 20260506230616 | 51 | 283 | 1.7 | 6.1 | 0.00 | 0.00 | 0.00 | 49 | 1011.1 |
| 20260506225615 | 51 | 321 | 1.7 | 6.1 | 0.00 | 0.00 | 0.00 | 48 | 1011.2 |
| 20260506224612 | 51 | 20 | 1.7 | 9.6 | 0.00 | 0.00 | 0.00 | 48 | 1011.3 |
| 20260506223612 | 51 | 192 | 1.7 | 12.2 | 0.00 | 0.00 | 0.00 | 48 | 1011.2 |
| 20260506222614 | 51 | 159 | 1.7 | 7.8 | 0.00 | 0.00 | 0.00 | 48 | 1011.4 |
| 20260506221617 | 50 | 305 | 1.7 | 4.3 | 0.00 | 0.00 | 0.00 | 48 | 1011.4 |
| 20260506220616 | 50 | 325 | 0.0 | 4.3 | 0.00 | 0.00 | 0.00 | 50 | 1011.4 |
| 20260506215612 | 51 | 319 | 1.7 | 6.1 | 0.00 | 0.00 | 0.00 | 48 | 1011.3 |
| 20260506214615 | 50 | 340 | 1.7 | 4.3 | 0.00 | 0.00 | 0.00 | 49 | 1011.4 |
| 20260506213612 | 51 | 324 | 1.7 | 6.1 | 0.00 | 0.00 | 0.00 | 48 | 1011.3 |
| 20260506212614 | 51 | 315 | 1.7 | 6.1 | 0.00 | 0.00 | 0.00 | 47 | 1011.3 |
| 20260506211611 | 51 | 313 | 0.0 | 6.1 | 0.00 | 0.00 | 0.00 | 50 | 1011.2 |
| 20260506210612 | 50 | 342 | 1.7 | 7.8 | 0.00 | 0.00 | 0.00 | 49 | 1011.2 |
| 20260506205612 | 50 | 312 | 1.7 | 3.5 | 0.00 | 0.00 | 0.00 | 50 | 1011.3 |
| 20260506204612 | 50 | 147 | 1.7 | 6.1 | 0.00 | 0.00 | 0.00 | 49 | 1011.2 |
| 20260506203612 | 51 | 269 | 1.7 | 6.1 | 0.00 | 0.00 | 0.00 | 49 | 1011.2 |
| 20260506202609 | 50 | 327 | 1.7 | 6.1 | 0.00 | 0.00 | 0.00 | 49 | 1011.2 |
| 20260506201610 | 50 | 309 | 1.7 | 6.1 | 0.00 | 0.00 | 0.00 | 49 | 1011.4 |
| 20260506200609 | 50 | 136 | 1.7 | 7.8 | 0.00 | 0.00 | 0.00 | 51 | 1011.5 |
| 20260506195612 | 49 | 332 | 3.5 | 6.1 | 0.00 | 0.00 | 0.00 | 51 | 1011.4 |
| 20260506194610 | 49 | 301 | 1.7 | 9.6 | 0.00 | 0.00 | 0.00 | 52 | 1011.5 |
| 20260506193610 | 49 | 277 | 3.5 | 7.8 | 0.00 | 0.00 | 0.00 | 50 | 1011.5 |
| 20260506192607 | 50 | 320 | 3.5 | 7.8 | 0.00 | 0.00 | 0.00 | 49 | 1011.6 |
| 20260506191607 | 50 | 326 | 3.5 | 6.1 | 0.00 | 0.00 | 0.00 | 49 | 1011.5 |
| 20260506190612 | 50 | 259 | 1.7 | 6.1 | 0.00 | 0.00 | 0.00 | 50 | 1011.5 |
| 20260506185610 | 49 | 323 | 3.5 | 7.8 | 0.00 | 0.00 | 0.00 | 51 | 1011.5 |
| 20260506184608 | 50 | 290 | 3.5 | 9.6 | 0.00 | 0.00 | 0.00 | 51 | 1011.4 |
| 20260506183608 | 49 | 247 | 1.7 | 6.1 | 0.00 | 0.00 | 0.00 | 52 | 1011.5 |
| 20260506182608 | 49 | 350 | 3.5 | 6.1 | 0.00 | 0.00 | 0.00 | 52 | 1011.4 |
| 20260506181611 | 49 | 254 | 1.7 | 10.4 | 0.00 | 0.00 | 0.00 | 52 | 1011.6 |
| 20260506180606 | 50 | 273 | 1.7 | 6.1 | 0.00 | 0.00 | 0.00 | 54 | 1011.5 |
| 20260506175607 | 49 | 342 | 1.7 | 6.1 | 0.00 | 0.00 | 0.00 | 55 | 1011.6 |
| 20260506174605 | 49 | 321 | 1.7 | 6.1 | 0.00 | 0.00 | 0.00 | 55 | 1011.9 |
| 20260506173606 | 49 | 323 | 3.5 | 7.8 | 0.00 | 0.00 | 0.00 | 57 | 1011.8 |
| 20260506172618 | 47 | 328 | 1.7 | 4.3 | 0.00 | 0.00 | 0.00 | 59 | 1011.8 |
| 20260506171615 | 47 | 309 | 3.5 | 7.8 | 0.00 | 0.00 | 0.00 | 59 | 1011.8 |
| 20260506170601 | 48 | 155 | 3.5 | 9.6 | 0.00 | 0.00 | 0.00 | 57 | 1011.7 |
| 20260506165559 | 48 | 338 | 3.5 | 9.6 | 0.00 | 0.00 | 0.00 | 55 | 1011.6 |
| 20260506164600 | 48 | 288 | 3.5 | 9.6 | 0.00 | 0.00 | 0.00 | 57 | 1011.5 |
| 20260506163601 | 48 | 264 | 3.5 | 12.2 | 0.00 | 0.00 | 0.00 | 54 | 1011.7 |
| 20260506162602 | 48 | 286 | 1.7 | 6.1 | 0.00 | 0.00 | 0.00 | 57 | 1011.8 |
| 20260506161600 | 48 | 247 | 3.5 | 7.8 | 0.00 | 0.00 | 0.00 | 57 | 1011.7 |
| 20260506160611 | 47 | 271 | 3.5 | 7.8 | 0.00 | 0.00 | 0.00 | 57 | 1011.6 |
| 20260506155603 | 47 | 42 | 3.5 | 6.1 | 0.00 | 0.00 | 0.00 | 58 | 1011.6 |
| 20260506154558 | 48 | 331 | 3.5 | 6.1 | 0.00 | 0.00 | 0.00 | 58 | 1011.4 |
| 20260506153557 | 47 | 342 | 3.5 | 7.8 | 0.00 | 0.00 | 0.00 | 61 | 1011.3 |
| 20260506152559 | 47 | 301 | 1.7 | 7.8 | 0.00 | 0.00 | 0.00 | 60 | 1011.5 |
| 20260506151554 | 47 | 309 | 3.5 | 6.1 | 0.00 | 0.00 | 0.00 | 60 | 1011.6 |
| 20260506150557 | 46 | 313 | 3.5 | 7.8 | 0.00 | 0.00 | 0.00 | 61 | 1011.4 |
| 20260506145556 | 46 | 336 | 3.5 | 6.1 | 0.00 | 0.00 | 0.00 | 61 | 1011.3 |
| 20260506144556 | 46 | 300 | 1.7 | 6.1 | 0.00 | 0.00 | 0.00 | 61 | 1011.2 |
| 20260506143555 | 46 | 342 | 1.7 | 4.3 | 0.00 | 0.00 | 0.00 | 61 | 1011.2 |
| 20260506142556 | 45 | 69 | 1.7 | 6.1 | 0.00 | 0.00 | 0.00 | 63 | 1011.1 |
| 20260506141555 | 44 | 26 | 1.7 | 7.8 | 0.00 | 0.00 | 0.00 | 65 | 1011.1 |
| 20260506140556 | 44 | 346 | 3.5 | 7.8 | 0.00 | 0.00 | 0.00 | 65 | 1011.0 |
| 20260506135555 | 44 | 342 | 0.0 | 3.5 | 0.00 | 0.00 | 0.00 | 65 | 1010.9 |
| 20260506134556 | 43 | 337 | 3.5 | 6.1 | 0.00 | 0.00 | 0.00 | 65 | 1010.8 |
| 20260506133555 | 43 | 348 | 1.7 | 6.1 | 0.00 | 0.00 | 0.00 | 66 | 1010.8 |
| 20260506132555 | 43 | 350 | 1.7 | 7.8 | 0.00 | 0.00 | 0.00 | 66 | 1010.7 |
| 20260506131553 | 43 | 24 | 3.5 | 7.8 | 0.00 | 0.00 | 0.00 | 65 | 1010.6 |
| 20260506130554 | 43 | 334 | 1.7 | 6.1 | 0.00 | 0.00 | 0.00 | 68 | 1010.5 |
| 20260506125557 | 42 | 336 | 3.5 | 7.8 | 0.00 | 0.00 | 0.00 | 69 | 1010.3 |
| 20260506124552 | 42 | 325 | 3.5 | 7.8 | 0.00 | 0.00 | 0.00 | 71 | 1010.2 |
| 20260506123553 | 42 | 329 | 1.7 | 4.3 | 0.00 | 0.00 | 0.00 | 72 | 1010.1 |
| 20260506122553 | 41 | 336 | 3.5 | 6.1 | 0.00 | 0.00 | 0.00 | 74 | 1010.2 |
| 20260506121552 | 41 | 294 | 3.5 | 6.1 | 0.00 | 0.00 | 0.00 | 74 | 1009.9 |
| 20260506120551 | 41 | 335 | 3.5 | 6.1 | 0.00 | 0.00 | 0.00 | 74 | 1009.9 |
| 20260506115553 | 41 | 328 | 1.7 | 6.1 | 0.00 | 0.00 | 0.00 | 74 | 1009.6 |
| 20260506114551 | 40 | 326 | 3.5 | 6.1 | 0.00 | 0.00 | 0.00 | 73 | 1009.4 |
| 20260506113552 | 40 | 322 | 1.7 | 3.5 | 0.00 | 0.00 | 0.00 | 73 | 1009.4 |
| 20260506112555 | 40 | 322 | 0.0 | 3.5 | 0.00 | 0.00 | 0.00 | 73 | 1009.3 |
| 20260506111554 | 41 | 322 | 0.0 | 3.5 | 0.00 | 0.00 | 0.00 | 72 | 1009.1 |
| 20260506110555 | 41 | 322 | 0.0 | 0.0 | 0.00 | 0.00 | 0.00 | 71 | 1008.9 |
| 20260506105555 | 41 | 322 | 0.0 | 3.5 | 0.00 | 0.00 | 0.00 | 70 | 1008.8 |
| 20260506104553 | 41 | 322 | 0.0 | 3.5 | 0.00 | 0.00 | 0.00 | 70 | 1008.5 |
| 20260506103550 | 42 | 322 | 0.0 | 3.5 | 0.00 | 0.00 | 0.00 | 69 | 1008.6 |
| 20260506102557 | 42 | 322 | 0.0 | 3.5 | 0.00 | 0.00 | 0.00 | 68 | 1008.6 |
| 20260506101547 | 42 | 322 | 1.7 | 3.5 | 0.00 | 0.00 | 0.00 | 67 | 1008.5 |
| 20260506100545 | 43 | 37 | 0.0 | 3.5 | 0.00 | 0.00 | 0.00 | 69 | 1008.0 |
| 20260506095545 | 43 | 46 | 0.0 | 3.5 | 0.00 | 0.00 | 0.00 | 70 | 1007.8 |
| 20260506094553 | 43 | 66 | 0.0 | 3.5 | 0.00 | 0.00 | 0.00 | 71 | 1007.7 |
| 20260506093549 | 43 | 67 | 0.0 | 4.3 | 0.00 | 0.00 | 0.00 | 70 | 1007.9 |
| 20260506092546 | 44 | 33 | 1.7 | 4.3 | 0.00 | 0.00 | 0.00 | 74 | 1007.8 |
| 20260506091544 | 44 | 331 | 0.0 | 3.5 | 0.00 | 0.00 | 0.00 | 77 | 1007.7 |
| 20260506090546 | 44 | 333 | 1.7 | 4.3 | 0.00 | 0.00 | 0.00 | 76 | 1007.6 |
| 20260506085556 | 44 | 333 | 0.0 | 4.3 | 0.00 | 0.00 | 0.00 | 75 | 1007.5 |
| 20260506084543 | 45 | 331 | 1.7 | 3.5 | 0.00 | 0.00 | 0.00 | 74 | 1007.6 |
| 20260506083539 | 45 | 336 | 0.0 | 3.5 | 0.00 | 0.00 | 0.00 | 73 | 1007.7 |
| 20260506082540 | 45 | 333 | 1.7 | 3.5 | 0.00 | 0.00 | 0.00 | 72 | 1007.6 |
| 20260506081539 | 45 | 331 | 0.0 | 3.5 | 0.00 | 0.00 | 0.00 | 71 | 1007.8 |
| 20260506080540 | 45 | 323 | 1.7 | 3.5 | 0.00 | 0.00 | 0.00 | 70 | 1007.7 |
| 20260506072541 | 47 | 331 | 1.7 | 4.3 | 0.00 | 0.00 | 0.00 | 66 | 1007.4 |
| 20260506071534 | 47 | 312 | 1.7 | 3.5 | 0.00 | 0.00 | 0.00 | 65 | 1007.5 |
| 20260506070531 | 47 | 313 | 0.0 | 3.5 | 0.00 | 0.00 | 0.00 | 64 | 1007.4 |
| 20260506061530 | 47 | 305 | 1.7 | 4.3 | 0.00 | 0.00 | 0.00 | 59 | 1007.6 |
| 20260506060530 | 48 | 343 | 3.5 | 6.1 | 0.00 | 0.00 | 0.00 | 58 | 1007.5 |
| 20260506050529 | 49 | 315 | 1.7 | 4.3 | 0.00 | 0.00 | 0.00 | 55 | 1007.5 |
| 20260506044530 | 49 | 329 | 1.7 | 3.5 | 0.00 | 0.00 | 0.00 | 55 | 1007.1 |
| 20260506043525 | 49 | 307 | 1.7 | 4.3 | 0.00 | 0.00 | 0.00 | 55 | 1007.3 |
| 20260506042527 | 49 | 327 | 1.7 | 4.3 | 0.00 | 0.00 | 0.00 | 54 | 1007.2 |
| 20260506041524 | 49 | 326 | 1.7 | 6.1 | 0.00 | 0.00 | 0.00 | 55 | 1007.2 |
| 20260506040518 | 49 | 298 | 0.0 | 3.5 | 0.00 | 0.00 | 0.00 | 54 | 1007.3 |
| 20260506035519 | 49 | 336 | 0.0 | 3.5 | 0.00 | 0.00 | 0.00 | 55 | 1007.4 |
| 20260506034518 | 49 | 313 | 0.0 | 0.0 | 0.00 | 0.00 | 0.00 | 54 | 1007.5 |
| 20260506033516 | 49 | 305 | 0.0 | 3.5 | 0.00 | 0.00 | 0.00 | 54 | 1007.4 |
| 20260506032521 | 49 | 302 | 0.0 | 6.1 | 0.00 | 0.00 | 0.00 | 54 | 1007.4 |
| 20260506031515 | 50 | 350 | 0.0 | 4.3 | 0.00 | 0.00 | 0.00 | 53 | 1007.4 |
| 20260506030517 | 50 | 323 | 0.0 | 3.5 | 0.00 | 0.00 | 0.00 | 53 | 1007.3 |
| 20260506025517 | 50 | 291 | 0.0 | 3.5 | 0.00 | 0.00 | 0.00 | 52 | 1007.4 |
| 20260506024518 | 50 | 178 | 0.0 | 3.5 | 0.00 | 0.00 | 0.00 | 52 | 1007.6 |
| 20260506023516 | 50 | 326 | 0.0 | 3.5 | 0.00 | 0.00 | 0.00 | 52 | 1007.4 |
| 20260506022519 | 50 | 184 | 0.0 | 3.5 | 0.00 | 0.00 | 0.00 | 53 | 1007.4 |
| 20260506021517 | 50 | 236 | 0.0 | 3.5 | 0.00 | 0.00 | 0.00 | 50 | 1007.7 |
| 20260506020511 | 50 | 280 | 0.0 | 1.7 | 0.00 | 0.00 | 0.00 | 51 | 1007.5 |
| 20260506015510 | 51 | 314 | 1.7 | 6.1 | 0.00 | 0.00 | 0.00 | 49 | 1007.2 |
| 20260506014510 | 51 | 316 | 0.0 | 6.1 | 0.00 | 0.00 | 0.00 | 50 | 1007.0 |
| 20260506013514 | 51 | 257 | 0.0 | 6.1 | 0.00 | 0.00 | 0.00 | 50 | 1007.0 |
| 20260506012510 | 51 | 252 | 0.0 | 4.3 | 0.00 | 0.00 | 0.00 | 50 | 1006.9 |
| 20260506011506 | 51 | 268 | 0.0 | 3.5 | 0.00 | 0.00 | 0.00 | 49 | 1006.8 |